Regional Weather Roundup
Issued by NWS Albany, NY

Home | Current Version | Previous Version | Text Only | Print | Product List | Glossary On
Versions: 1 2 3 4 5 6 7 8 9 10 11 12 13 14 15 16 17 18 19 20 21 22 23 24 25 26 27
000
ASUS41 KALY 101310
RWRALY

NEW YORK STATE HOURLY WEATHER ROUNDUP
NATIONAL WEATHER SERVICE ALBANY NY
800 AM EST SUN DEC 10 2017

NOTE: "FAIR" INDICATES FEW OR NO CLOUDS BELOW 12,000 FEET WITH NO
SIGNIFICANT WEATHER AND/OR NO OBSTRUCTIONS TO VISIBILITY.

NYZ032-033-038>043-046>054-057>066-NYZ062>081-082-084-101400-
EAST


CITY           SKY/WX    TMP DP  RH WIND       PRES   REMARKS
ALBANY         CLOUDY    24  19  81 SW6       29.79R WCI  17
GLENS FALLS    CLOUDY    24  23  96 S5        29.75R WCI  18
POUGHKEEPSIE   PTCLDY    26  20  77 SW10      29.83R WCI  16
NEWBURGH       PTCLDY    25  21  86 SW12      29.83R WCI  14
MONTGOMERY     PTCLDY    21  18  88 SW6       29.83R WCI  13
WHITE PLAINS   PTCLDY    27  21  78 W8        29.83R WCI  19
ISLIP          MOCLDY    30  26  85 W7        29.84R WCI  23
NEW YORK CITY  MOCLDY    32  21  64 W12       29.88R WCI  23
CENTRAL PARK   PTCLDY    29  21  72 SW8       29.89R HAZE    WCI  21
$$

NYZ005>009-017-018-044>046-055-056-101400-
CENTRAL


CITY           SKY/WX    TMP DP  RH WIND       PRES   REMARKS
FULTON         CLOUDY    32  23  69 W12       29.79R WCI  23
SYRACUSE       LGT SNOW  29  26  89 W14       29.80R FOG     WCI  18
ROME           LGT SNOW  26  24  92 CALM      29.78R VSB 3/4
ELMIRA         CLOUDY    29  25  85 W5        29.82R WCI  24
BINGHAMTON     CLOUDY    23  19  85 W9        29.76R WCI  13
$$

NYZ026>034-041>043-087-101400-
NORTH


CITY           SKY/WX    TMP DP  RH WIND       PRES   REMARKS
WATERTOWN      CLOUDY    30  22  72 W17G24    29.76R WCI  18
FORT DRUM      NOT AVBL
OGDENSBURG     LGT SNOW  28  27  96 MISG      29.70R
MASSENA        LGT SNOW  29  27  92 SW12      29.70R FOG     WCI  19
SARANAC LAKE   CLOUDY    22  21  96 SW7       29.61R WCI  13
PLATTSBURGH    CLOUDY    29  20  69 S6        29.68R WCI  23
$$

NYZ001>004-010>016-019>021-085-101400-
WEST


CITY           SKY/WX    TMP DP  RH WIND       PRES   REMARKS
NIAGARA FALLS  CLOUDY    29  18  63 W22G30    29.85R WCI  15
BUFFALO        CLOUDY    27  20  75 W12G22    29.85R WCI  17
DUNKIRK        CLOUDY    29  18  63 W14G32    29.88R WCI  18
JAMESTOWN      FLURRIES  25  23  92 W8        29.84R WCI  16
WELLSVILLE     CLOUDY    27  19  72 NW15      29.80R WCI  15
ROCHESTER      CLOUDY    29  26  89 W9        29.82R WCI  20
PENN YAN       LGT SNOW  30  21  69 W8        29.81R WCI  22
$$

             KEY
       WCI = WIND CHILL INDEX
       VSB = VISIBILITY
       HX  = HEAT INDEX
$$




USA.gov is the U.S. government's official web portal to all federal, state and local government web resources and services.